Regional Weather Roundup
Issued by NWS New Orleans/Baton Rouge, LA

Home | Current Version | Previous Version | Text Only | Print | Product List | Glossary Off
Versions: 1 2 3 4 5 6 7 8 9 10 11 12 13 14 15 16 17 18 19 20 21 22 23 24 25 26 27 28 29 30 31 32 33 34 35 36 37 38 39 40 41 42 43 44 45 46 47 48 49 50

135
ASUS44 KLIX 222105
RWRLIX
NEW ORLEANS REGIONAL WEATHER ROUNDUP
NATIONAL WEATHER SERVICE NEW ORLEANS LA
400 PM CDT TUE JUL 22 2014

NOTE: "FAIR" INDICATES FEW OR NO CLOUDS BELOW 12,000 FEET WITH NO
      SIGNIFICANT WEATHER AND/OR OBSTRUCTIONS TO VISIBILITY.
      SKY/WX - SKY CONDITION AND SIGNIFICANT WEATHER.
      TMP - AIR TEMPERATURE.     DP    - DEWPOINT TEMPERATURE.
      RH  - RELATIVE HUMIDITY.   PRES  - PRESSURE.
      HI  - HEAT INDEX.          WCI   - WIND CHILL INDEX.

*  THESE STATIONS ARE NOT NWS OR FAA STATIONS AND ARE NOT UNDER
   NWS QUALITY CONTROL.

LAZ038-040-048-061>063-065>067-069-222200-
SOUTHEAST LOUISIANA

CITY           SKY/WX    TMP DP  RH WIND       PRES   REMARKS
N.O. AUDUBON     N/A     92  72  51 MISG        N/A  HX  99
N.O. INTL ARPT PTSUNNY   88  72  58 SE5       29.99F
N.O. LAKEFRONT PTSUNNY   89  69  51 NE3       30.01S
N.O. DOWNTOWN* CLOUDY    82  72  69 NE7       30.01R
SLIDELL        CLOUDY    86  72  62 SE5       30.00R
BATON ROUGE    MOSUNNY   91  67  44 NE7       29.99F
BOOTHVILLE     CLOUDY    78  71  79 NE17G23   30.01R
BELLE CHASSE   NOT AVBL
BOGALUSA*        N/A     77  71  81 NE7G17    30.03S
GALLIANO*      NOT AVBL
NEW ROADS*       N/A     87  70  55 CALM      30.00F
GONZALES*        N/A     89  66  45 CALM      29.98F
HAMMOND*       PTSUNNY   90  68  48 CALM      30.01F
HOUMA*         MOSUNNY   79  70  73 CALM      30.02S FOG
PORT FOURCHON* CLEAR     86  73  66 SW9       30.01S

$$

MSZ070-080>082-222200-
SOUTHERN MISSISSIPPI

CITY           SKY/WX    TMP DP  RH WIND       PRES   REMARKS
MCCOMB         CLOUDY    85  72  65 NE5       30.03S
GULFPORT       MOSUNNY   88  72  58 S7        29.99S
BILOXI         NOT AVBL
PASCAGOULA     PTSUNNY   81  73  76 N7        30.01F
STENNIS ARPT*  MOSUNNY  N/A N/A N/A S9        30.00S

$$

COASTAL OBSERVATIONS
LAKE AND NEARSHORE STATIONS

STATION/POSITION TIME  TEMP    WIND        PRES    WAVE
                       AIR SEA DIR/SP/G            HT/PER
                 (UTC) (F)     (DEG/KT/KT) (MB)    (FT/S)
PASCAGOULA       2100   86     230/  7/  9 1015.8
WAVELAND YACHT   2100   86     200/  9/ 14 1015.0
GRAND ISLE       2100   83 85  250/  8/ 10 1016.6
SOUTHWEST PASS   2100   84 86  190/  7/ 12 1016.3
NEW CANAL        2100   86 84   30/  2/  3 1016.2
SHELL BEACH      2100   85 82  180/  9/ 11 1015.8

OFFSHORE STATIONS

STATION/POSITION TIME  TEMP    WIND        PRES    WAVE
                       AIR SEA DIR/SP/G            HT/PER
                 (UTC) (F)     (DEG/KT/KT) (MB)    (FT/S)
64 S DAUPHIN ISL 2005   82 86  190/ 10/ 12 1016.3

$$




USA.gov is the U.S. government's official web portal to all federal, state and local government web resources and services.